Regional Weather Roundup
Issued by NWS Northern Indiana

Home | Current Version | Previous Version | Graphics & Text | Print | Product List | Glossary On
Versions: 1 2 3 4 5 6 7 8 9 10 11 12 13 14 15 16 17 18 19 20 21 22 23 24 25 26 27 28 29 30 31 32 33 34 35 36 37 38 39 40 41 42 43 44 45 46 47 48 49 50
000
ASUS43 KIWX 232100
RWRIWX

KIWX WEATHER ROUNDUP
NATIONAL WEATHER SERVICE NORTHERN INDIANA
500 PM EDT TUE SEP 23 2014

NOTE: "FAIR" INDICATES FEW OR NO CLOUDS BELOW 12,000 FEET WITH NO
SIGNIFICANT WEATHER AND/OR OBSTRUCTIONS TO VISIBILITY.

* THESE STATIONS ARE NOT UNDER NWS QUALITY CONTROL. THEY ALSO MAY NOT
  REPORT WEATHER SUCH AS PRECIPITATION OR FOG.

INZ001>027-232200-
NORTHERN INDIANA

CITY           SKY/WX    TMP DP  RH WIND       PRES   REMARKS
VALPARAISO     SUNNY     71  47  42 CALM      30.29F
SOUTH BEND     SUNNY     72  47  40 CALM      30.31F
ELKHART*       SUNNY     72  46  40 CALM      30.31F
GOSHEN         SUNNY     71  50  47 SW3       30.30F
ANGOLA*        SUNNY     73  50  43 CALM      30.30F
FORT WAYNE     SUNNY     70  48  45 CALM      30.32F
PERU/GRISSOM   SUNNY     71  51  49 N5        30.30F

$$
INZ028>050-232200-
CENTRAL INDIANA

CITY           SKY/WX    TMP DP  RH WIND       PRES   REMARKS
LAFAYETTE      SUNNY     70  49  47 E3        30.28F
KOKOMO*        SUNNY     72  48  43 E7        30.30F
MUNCIE*        SUNNY     71  42  35 CALM      30.30F
INDIANAPOLIS   SUNNY     71  46  40 VRB7      30.29F

$$
MIZ043>046-050>051-056>058-064>065-071>073-077>080-232200-
SOUTHWEST LOWER MICHIGAN

CITY           SKY/WX    TMP DP  RH WIND       PRES   REMARKS
BATTLE CREEK   SUNNY     72  50  45 NW5       30.31F
BENTON HARBOR  SUNNY     66  46  48 W6        30.31F
COLDWATER*     SUNNY     73  48  41 CALM      30.31S
HILLSDALE*     SUNNY     71  48  43 W3        30.31F
HOLLAND        SUNNY     69  51  52 SW9       30.32F
GRAND RAPIDS   MOSUNNY   73  54  51 W9        30.31S
KALAMAZOO      SUNNY     73  50  44 W6        30.31F
STURGIS*         N/A     70  48  46 CALM      30.30F
THREE RIVERS*  FAIR      72  52  49 W5        30.31F

$$
OHZ001>008-015>018-024>025-232200-
NORTHWEST OHIO

CITY           SKY/WX    TMP DP  RH WIND       PRES   REMARKS
DEFIANCE       SUNNY    N/A N/A N/A CALM      30.31F
FINDLAY        SUNNY     73  44  35 N3        30.30F
TOLEDO EXPRESS SUNNY     70  45  40 VRB3      30.31F
TOLEDO METCALF SUNNY     71  42  35 CALM      30.31F
LIMA           SUNNY     72  47  40 CALM      30.31F

$$
AND FOR LAKE MICHIGAN COASTAL AND OPEN LAKE BUOY OBSERVATIONS

STATION/POSITION TEMP    WIND        PRES    VSBY  WAVE
                 AIR SEA DIR/SP/G                  HT/PER
                 (F)     (DEG/KT/KT) (MB)    (MI)  (FT/S)
CALUMET HARBOR            60/  9/ 10 1024.6F
SAINT JOSEPH      68      CALM  /  6 1027.4F
SOUTH LAKE BUOY   62 61  190/  8/ 10 1026.9F         1/ 3
4 MI NW BRIDGMAN  64 65  330/  4/  6   N/A           1/ 3
MICHIGAN CITY     64 65   30/  6/  8   N/A           1

$$
&&



USA.gov is the U.S. government's official web portal to all federal, state and local government web resources and services.